Location: ?
(35.3436°N, 139.3168°E)
Time: 21:41:55
(UTC+00:00)

CZ-4B R/B - Pass Details

Date: 29 October 2020
Orbit: 389 x 462 km, 97.6° (Epoch: 24 November)

Event Time Altitude Azimuth Distance (km) Brightness Sun altitude
Rises 19:48:42 0° 179° (S) 2,477 5.3 -15.5°
Reaches altitude 10° 19:50:47 10° 185° (S) 1,606 4.2 -15.1°
Maximum altitude 19:54:07 46° 260° (W) 625 1.7 -14.4°
Drops below altitude 10° 19:57:27 10° 335° (NNW) 1,604 3.9 -13.8°
Enters shadow 19:58:12 - 338° (NNW) 1,911 4.3 -13.6°
